This demonstration page uses our WeatherBlox Daily Observations layout. Learn more.

Left ArrowRight Arrow

Hourly Observations for June 16, 2015

Temp ( °F °C ) Dew Point ( °F °C ) Humidity (%) Winds ( mph kmh ) Pressure ( in mb ) Visibility ( mi km ) Precip ( " mm )
12:53 am 00:53 Mostly Clear 54 12.2 44 6.7 69 69 E 7 11 30.08 1019 10 16 0.00 0.00
1:53 am 01:53 Clear 52 11.1 43 6.1 72 72 E 5 7 30.06 1018 10 16 0.00 0.00
2:53 am 02:53 Clear 51 10.6 43 6.1 74 74 E 6 9 30.05 1018 10 16 0.00 0.00
3:53 am 03:53 Clear 48 8.9 42 5.6 80 80 ENE 9 15 30.05 1018 10 16 0.00 0.00
4:53 am 04:53 Clear 47 8.3 42 5.6 83 83 E 7 11 30.04 1017 10 16 0.00 0.00
5:53 am 05:53 Mostly Sunny 48 8.9 42 5.6 80 80 ENE 7 11 30.04 1017 10 16 0.00 0.00
6:53 am 06:53 Mostly Cloudy 54 12.2 43 6.1 67 67 Calm 30.03 1017 10 16 0.00 0.00
7:53 am 07:53 Partly Cloudy 58 14.4 44 6.7 60 60 Calm 30.03 1017 10 16 0.00 0.00
8:53 am 08:53 Mostly Cloudy 63 17.2 43 6.1 48 48 Calm 30.02 1017 10 16 0.00 0.00
9:53 am 09:53 Mostly Cloudy 67 19.4 42 5.6 41 41 NNE 3 6 30.01 1016 10 16 0.00 0.00
10:53 am 10:53 Sunny 69 20.6 42 5.6 38 38 Calm 30.01 1016 10 16 0.00 0.00
11:53 am 11:53 Mostly Sunny 71 21.7 42 5.6 35 35 SE 7 11 30.00 1016 10 16 0.00 0.00
12:53 pm 12:53 Mostly Cloudy 74 23.3 40 4.4 29 29 NNW 6 9 29.98 1015 10 16 0.00 0.00
1:53 pm 13:53 Mostly Sunny 74 23.3 39 3.9 28 28 Calm 29.98 1015 10 16 0.00 0.00
2:53 pm 14:53 Sunny 76 24.4 38 3.3 25 25 SW 5 7 29.96 1015 10 16 0.00 0.00
3:53 pm 15:53 Cloudy 75 23.9 39 3.9 27 27 E 7 11 29.96 1014 10 16 0.00 0.00
4:53 pm 16:53 Sunny 76 24.4 40 4.4 27 27 Calm 29.94 1014 10 16 0.00 0.00
5:53 pm 17:53 Partly Cloudy 78 25.6 40 4.4 26 26 SE 8 13 29.93 1013 10 16 0.00 0.00
6:53 pm 18:53 Partly Cloudy 78 25.6 38 3.3 24 24 Calm 29.91 1013 10 16 0.00 0.00
7:53 pm 19:53 Sunny 77 25 36 2.2 23 23 W 6 9 29.91 1013 10 16 0.00 0.00
8:53 pm 20:53 Sunny 70 21.1 40 4.4 34 34 S 3 6 29.91 1013 10 16 0.00 0.00
9:53 pm 21:53 Clear 59 15 44 6.7 58 58 S 12 19 29.94 1014 10 16 0.00 0.00

Powered by AerisWeather